Location: 22
(39.7117°N, 89.5929°W)
Time: 16:07:51
(UTC-05:00)

Tiros 1 despin weight - Pass Details

Date: 13 August 2024
Orbit: 573 x 617 km, 48.2° (Epoch: 17 September)

Event Time Altitude Azimuth Distance (km) Brightness Sun altitude
Rises 20:04:00 0° 295° (WNW) 2,798 ? -2.2°
Reaches altitude 10° 20:06:33 10° 308° (NW) 1,891 ? -2.7°
Maximum altitude 20:10:17 27° 7° (N) 1,110 ? -3.3°
Drops below altitude 10° 20:13:58 10° 67° (ENE) 1,877 ? -4.0°
Enters shadow 20:16:20 - 79° (E) 2,713 ? -4.4°
